Weather History for MYNN - February, 2013

Change the Weather History Date:

Saturday, February 2, 2013

  Actual Average Record
Temperature  
Mean Temperature 71 °F -  
Max Temperature 75 °F 78 °F 86 °F (2007)
Min Temperature 66 °F 62 °F 51 °F (1997)
Cooling Degree Days 6    
Growing Degree Days 21 (Base 50)    
Moisture  
Dew Point 58 °F    
Average Humidity 62    
Maximum Humidity 78    
Minimum Humidity 49    
Precipitation  
Precipitation 0.00 in 0.05 in - ()
Sea Level Pressure  
Sea Level Pressure 30.17 in    
Wind  
Wind Speed 9 mph ()    
Max Wind Speed 14 mph    
Max Gust Speed -    
Visibility 6.8 miles    
Events      
Averages and records for this station are not official NWS values.
T = Trace of Precipitation, MM = Missing Value Source: Averaged Metar Reports

Daily Weather History Graph

Daily Weather History Graph

Search for Another Location

Airport or City:

Trip Planner

Search our weather history database for the weather conditions in past years. The results will help you decide how hot, cold, wet, or windy it might be!

Date:

Astronomy

Feb. 02, 2013 Rise Set
Actual Time 6:51 AM EST 5:55 PM EST
Civil Twilight 6:28 AM EST 6:19 PM EST
Nautical Twilight 6:00 AM EST 6:46 PM EST
Astronomical Twilight 5:33 AM EST 7:13 PM EST
Moon No Moon Rise 10:48 AM EST (2/2)
Length of Visible Light 11h 51m
Length of Day
11h 03m
Waning Gibbous, 60% of the Moon is Illuminated
Feb 2
Waning Gibbous
Feb 3
Last Quarter
Feb 10
New
Feb 17
First Quarter
Feb 25
Full

Hourly Weather History & Observations

Time (EST) Temp. Dew Point Humidity Pressure Visibility Wind Dir Wind Speed Gust Speed Precip Events Conditions
1:00 AM 69 °F 57 °F 57% 30.19 in 9 mi NE 10.4 mph - -   Scattered Clouds
1:00 AM 68.0 °F 57.2 °F 68% 30.19 in 6.2 mi NE 10.4 mph - N/A   Partly Cloudy
5:00 AM 68.0 °F 55.4 °F 64% 30.16 in 6.2 mi NE 11.5 mph - N/A   Partly Cloudy
6:00 AM 68.0 °F 55.4 °F 64% 30.18 in 6.2 mi NE 11.5 mph - N/A   Mostly Cloudy
7:00 AM 69 °F 58 °F 58% 30.20 in 9 mi NE 11.5 mph - -   Mostly Cloudy
7:00 AM 69.8 °F 57.2 °F 64% 30.20 in 6.2 mi NE 11.5 mph - N/A   Mostly Cloudy
8:00 AM 68.0 °F 57.2 °F 68% 30.21 in 6.2 mi NNE 13.8 mph - N/A   Mostly Cloudy
9:00 AM 69.8 °F 57.2 °F 64% 30.22 in 6.2 mi NE 11.5 mph - N/A   Mostly Cloudy
10:00 AM 72 °F 57 °F 49% 30.24 in 8 mi NE 13.8 mph - -   Partly Cloudy
10:00 AM 71.6 °F 57.2 °F 60% 30.24 in 6.2 mi NE 13.8 mph - N/A   Scattered Clouds
11:00 AM 71.6 °F 57.2 °F 60% 30.22 in 6.2 mi NE 13.8 mph - N/A   Mostly Cloudy
12:00 PM 71.6 °F 55.4 °F 57% 30.19 in 6.2 mi NE 11.5 mph - N/A   Mostly Cloudy
1:00 PM 73 °F 58 °F 51% 30.17 in 8 mi NE 11.5 mph - -   Mostly Cloudy
1:00 PM 73.4 °F 59.0 °F 61% 30.16 in 6.2 mi NE 11.5 mph - N/A   Mostly Cloudy
2:00 PM 71.6 °F 57.2 °F 60% 30.14 in 6.2 mi NE 11.5 mph - N/A   Mostly Cloudy
3:00 PM 73.4 °F 57.2 °F 57% 30.11 in 6.2 mi NE 11.5 mph - N/A   Mostly Cloudy
4:00 PM 73 °F 58 °F 49% 30.14 in 8 mi NE 6.9 mph - -   Mostly Cloudy
4:00 PM 73.4 °F 57.2 °F 57% 30.13 in 6.2 mi NE 6.9 mph - N/A   Mostly Cloudy
5:00 PM 71.6 °F 57.2 °F 60% 30.11 in 6.2 mi ENE 8.1 mph - N/A   Partly Cloudy
6:00 PM 69.8 °F 59.0 °F 68% 30.13 in 6.2 mi ENE 3.5 mph - N/A   Scattered Clouds
7:00 PM 70 °F 58 °F 58% 30.13 in 9 mi ENE 3.5 mph - -   Mostly Cloudy
7:00 PM 69.8 °F 59.0 °F 68% 30.13 in 6.2 mi ENE 3.5 mph - N/A   Mostly Cloudy
8:00 PM 69.8 °F 59.0 °F 68% 30.14 in 6.2 mi Variable 2.3 mph - N/A   Scattered Clouds
9:00 PM 68.0 °F 59.0 °F 73% 30.13 in 6.2 mi Variable 2.3 mph - N/A   Scattered Clouds
10:00 PM 67 °F 60 °F 73% 30.15 in 9 mi Calm Calm - -   Mostly Cloudy
10:00 PM 68.0 °F 60.8 °F 78% 30.14 in 6.2 mi Calm Calm - N/A   Scattered Clouds
11:00 PM 66.2 °F 57.2 °F 73% 30.14 in 6.2 mi Calm Calm - N/A   Scattered Clouds